Location: Camaret
(48.2753°N, 4.5961°W)
Time: 14:31:27
(UTC+00:00)

Daily predictions for brighter satellites

Satellite Brightness Start Highest point End
(mag) Time Altitude Azimuth Time Altitude Azimuth Time Altitude Azimuth
Cosmos 1758 Rocket 3.7 17:29:12 10° NNW 17:33:38 80° W 17:37:57 10° S
Cosmos 2058 4.3 17:31:40 10° NNE 17:34:26 17° ENE 17:37:13 10° ESE
Aureole 3 3.9 17:33:10 10° SE 17:35:32 21° E 17:37:52 10° NE
Cosmos 2369 Rocket 4.2 17:31:11 10° W 17:35:42 24° NW 17:40:16 10° N
Meteor 2-21 4.5 17:29:39 10° N 17:35:51 86° ENE 17:41:57 10° S
CORIOLIS 4.1 17:30:55 10° SSE 17:36:14 72° ENE 17:41:36 10° N
Cosmos 2297 Rocket 2.3 17:31:34 10° NNW 17:37:11 58° ENE 17:42:46 10° SE
H-2A R/B 4.4 17:34:31 10° SSW 17:37:58 39° W 17:41:29 10° NNW
Timation 2 Rocket 4.2 17:32:11 10° NNW 17:38:49 88° NE 17:45:40 10° SSE
Cosmos 1953 4.4 17:36:53 10° SW 17:40:24 30° WNW 17:43:57 10° N
CZ-2C R/B 4.2 17:40:02 10° ESE 17:44:39 26° ENE 17:49:08 10° N
Cosmos 1606 Rocket 3.5 17:41:48 10° S 17:46:10 77° E 17:50:36 10° NNE
Cosmos 1315 Rocket 4.5 17:44:06 10° ESE 17:46:15 14° E 17:48:26 10° NE
YAOGAN 6 3.6 17:46:14 10° S 17:49:48 53° W 17:53:27 10° NNW
Cosmos 1553 Rocket 4.5 17:44:24 10° SSE 17:50:11 39° E 17:55:55 10° NNE
BREEZE-M R/B 3.2 17:49:27 10° W 17:52:48 74° N 17:59:00 11° E
USA 305 3.0 17:49:43 10° WNW 17:54:00 62° NNE 17:58:11 10° ESE
Meteor 2-10 Rocket 4.3 17:51:34 10° SSE 17:55:57 28° E 18:00:14 10° NNE
SKYMED 2 4.2 17:52:13 10° NNE 17:56:11 33° E 18:00:07 10° SSE
Cosmos 1455 3.6 17:55:28 10° SE 17:58:04 18° E 18:00:42 10° NE
Cosmos 292 Rocket 3.8 17:53:20 10° SSW 17:58:09 88° WNW 18:03:01 10° NNE
FengYun 1-2 T 4.3 17:53:03 10° SSE 17:58:43 84° ENE 18:04:23 10° NNW
NOSS 3-4 (A) 4.5 17:53:34 10° NW 17:59:41 35° NNE 18:05:39 13° E
NOSS 3-4 (C) 4.5 17:53:41 10° NW 17:59:47 35° NNE 18:05:43 13° E
USA 306 2.9 17:56:14 10° WNW 18:00:32 67° NNE 18:04:25 12° ESE
SeaSat 1 3.9 18:00:38 13° ENE 18:03:12 19° NE 18:06:33 10° N
Meteor 2-16 Rocket 4.5 17:58:00 10° N 18:04:08 89° WSW 18:10:14 10° S
H-2A R/B 3.1 18:00:40 10° ESE 18:05:06 26° ENE 18:09:34 10° N
FALCON 9 DEB 3.0 18:02:21 10° WSW 18:05:35 77° NNW 18:07:57 17° ENE
Okean-O 3.1 18:02:11 10° SE 18:06:15 37° ENE 18:10:21 10° N
FALCON 9 DEB 3.0 18:04:19 10° WSW 18:07:31 72° NNW 18:09:47 18° ENE
SMAP 4.1 18:03:23 10° S 18:07:54 51° W 18:12:28 10° NNW
SL-08 R/B 4.5 18:02:31 10° N 18:08:39 61° ENE 18:14:41 10° SSE
NOSS 3-3 (A) 4.5 18:05:26 10° S 18:10:42 37° ESE 18:16:10 12° NE
Cosmos 2219 3.4 18:05:03 10° NNW 18:10:50 80° WSW 18:16:35 10° SSE
NOSS 3-3 (C) 4.5 18:05:34 10° S 18:10:50 37° ESE 18:16:14 12° NE
Aureole 3 Rocket 3.3 18:07:19 10° S 18:11:29 68° E 18:17:21 10° NNE
ATLAS 5 CENTAUR R/B 4.0 18:10:21 10° NW 18:13:12 16° N 18:16:19 10° NNE
YAOGAN 3 4.5 18:08:59 10° SSE 18:13:19 77° ENE 18:17:42 10° N
Cosmos 1745 Rocket 4.2 18:08:58 10° N 18:15:06 51° ENE 18:21:15 10° SSE
USA 215 4.0 18:10:10 13° ENE 18:15:28 42° N 18:21:32 10° WNW
Cosmos 1953 Rocket 4.3 18:11:56 10° NNW 18:16:17 57° W 18:20:38 10° S
Lacrosse 5 3.0 18:12:25 10° WNW 18:16:54 30° N 18:20:11 16° ENE
Cosmos 2082 3.8 18:12:23 10° NNW 18:18:03 57° ENE 18:23:41 10° SE
Cosmos 1408 3.0 18:14:52 10° N 18:18:20 39° ENE 18:21:49 10° SSE
Cosmos 44 Rocket 4.4 18:14:41 10° SSE 18:18:25 23° ESE 18:19:58 20° E
GEOS 3 Rocket 4.3 18:17:20 17° E 18:20:55 38° NE 18:25:51 10° NNW
ARGOS 4.1 18:17:21 14° ESE 18:20:57 27° ENE 18:25:26 10° N
ATLAS 2AS CENTAUR R/B 3.5 18:14:39 10° NW 18:21:43 38° NNE 18:26:16 19° E
FALCON 9 DEB 3.2 18:19:03 10° WSW 18:22:17 62° NNW 18:24:00 24° NE
ERBS 4.2 18:19:58 10° NW 18:22:27 19° N 18:23:42 16° NE
Cosmos 1656 3.6 18:17:35 10° SSW 18:23:08 74° ESE 18:28:48 10° NNE
Cosmos 968 Rocket 3.4 18:18:16 10° NNW 18:23:33 85° ENE 18:28:42 10° SSE
Cosmos 2058 Rocket 3.1 18:19:40 10° S 18:24:10 87° W 18:28:43 10° N
Cosmos 1689 Rocket 2.0 18:22:10 10° NNE 18:25:01 55° E 18:27:50 10° S
FALCON 9 DEB 3.4 18:28:39 10° W 18:31:48 53° NNW 18:33:08 30° NE
FALCON 9 DEB 3.4 18:28:29 10° WNW 18:31:51 52° NNE 18:32:59 34° ENE
Cosmos 1076 Rocket 3.7 18:28:37 10° N 18:32:44 46° ENE 18:36:50 10° SSE
Cosmos 2369 4.0 18:29:09 10° S 18:34:31 44° ESE 18:39:11 14° NE
Cosmos 1892 2.7 18:31:08 10° N 18:35:03 85° W 18:38:56 10° S
IRS-1C Rocket 4.3 18:31:41 10° S 18:36:57 77° WSW 18:42:16 10° NNW
Cosmos 1939 Rocket 3.1 18:33:14 10° S 18:37:10 68° WSW 18:41:04 10° NNW
Cosmos 2227 Rocket 2.7 18:36:09 10° NNW 18:41:44 61° WSW 18:47:17 10° S
CSL-04 Rocket 3.9 18:36:50 10° SE 18:42:09 49° ENE 18:47:27 10° N
SAR-Lupe-4 4.1 18:39:38 10° N 18:43:11 58° WNW 18:46:42 10° SSW
SL-08 ROCKET BODY 4.4 18:37:27 10° N 18:43:37 90° E 18:49:48 10° S
Cosmos 2263 Rocket 3.0 18:38:44 10° NNW 18:43:46 31° NE 18:45:07 28° ENE
USA 307 3.0 18:40:02 10° WNW 18:44:19 76° SSW 18:46:28 28° SE
COSMO-SKYMED 1 2.6 18:40:01 10° NNE 18:44:23 82° WNW 18:48:43 10° SSW
Cosmos 1709 Rocket 4.2 18:38:25 10° N 18:44:37 49° ENE 18:50:46 10° SSE
CZ-4B R/B 3.4 18:43:09 10° N 18:45:57 28° WNW 18:48:40 10° SW
CZ-4C R/B 3.7 18:40:33 10° NW 18:46:30 33° NNE 18:49:38 24° ENE
Cosmos 1400 Rocket 4.0 18:44:34 10° SSW 18:48:31 45° WNW 18:52:27 10° N
USA 308 3.0 18:45:01 10° WNW 18:49:17 71° SW 18:51:16 31° SE
Cosmos 1825 2.1 18:46:48 10° N 18:50:34 61° ENE 18:52:23 28° SSE
ERS-2 4.2 18:47:56 10° N 18:51:04 27° WNW 18:54:12 10° SW
Helios 1A Rocket 3.3 18:50:42 10° S 18:54:47 66° WSW 18:58:53 10° NNW
Cosmos 1697 Rocket 2.6 18:50:59 10° SSW 18:56:34 74° ESE 19:01:26 14° NNE
YAOGAN 1 2.5 18:53:42 10° SSE 18:58:02 89° W 19:02:24 10° NNW
Cosmos 883 Rocket 4.4 18:54:00 10° S 18:59:59 57° E 19:05:58 10° NNE
CZ-2D R/B 4.2 18:58:18 10° S 19:01:59 48° W 19:05:41 10° NNW
Cosmos 1503 Rocket 4.1 18:58:30 10° NNW 19:03:44 75° WSW 19:08:59 10° SSE
Cosmos 1812 Rocket 3.4 19:00:25 10° S 19:04:47 75° E 19:09:10 10° NNE
CZ-4 R/B 1.8 19:01:38 10° S 19:05:28 60° W 19:09:18 10° NNW
S3M 4.0 19:00:47 10° S 19:06:54 84° W 19:13:08 10° N
Cosmos 1346 Rocket 3.9 19:06:23 10° NNW 19:10:13 45° W 19:14:01 10° SSW
DMSP B5D1-3 4.4 19:05:10 10° NNE 19:10:19 68° ESE 19:15:27 10° S
Meteor 2-1 Rocket 4.2 19:05:06 10° SSW 19:10:37 82° WNW 19:16:12 10° N
Cosmos 2315 Rocket 4.0 19:04:46 10° SSE 19:10:48 57° E 19:16:51 10° NNE
Cosmos 2058 3.8 19:07:41 10° NNW 19:11:39 48° W 19:15:35 10° SSW
SL-4 R/B 1.7 19:08:38 10° WNW 19:12:08 83° WNW 19:12:08 83° WNW
Cosmos 2151 3.4 19:10:59 10° N 19:14:07 45° NNE 19:14:07 45° NNE
Cosmos 1354 Rocket 4.3 19:11:20 10° NNW 19:16:34 67° WSW 19:21:30 12° S
SJ-11-01 4.2 19:14:32 19° SSE 19:17:55 86° WSW 19:22:37 10° NNW
Cosmos 1980 Rocket 2.1 19:14:41 10° SSW 19:20:13 62° ESE 19:21:13 53° ENE
Cosmos 1992 Rocket 4.3 19:15:17 10° SSW 19:20:27 66° WNW 19:25:34 10° NNE
Cosmos 2297 Rocket 4.3 19:16:16 10° NW 19:20:51 26° WSW 19:25:25 10° SSW
Cosmos 1315 Rocket 3.5 19:18:27 10° SSW 19:22:20 53° WNW 19:26:18 10° N
CZ-2C R/B 3.8 19:18:26 10° S 19:24:08 61° W 19:29:41 10° NNW
CSL-04 Debris 4.3 19:19:47 10° S 19:25:14 75° WSW 19:30:44 10° NNW
Timation 1 Rocket 4.5 19:19:51 10° NNW 19:25:52 73° WSW 19:29:28 25° SSE
Ariane Rocket 3.9 19:33:54 35° NNE 19:33:54 35° NNE 19:37:08 10° N
Geosat 3.8 19:33:07 78° E 19:33:15 79° ESE 19:38:17 10° SSW
Cosmos 1455 3.6 19:29:51 10° SW 19:33:24 37° WNW 19:36:59 10° N
USA 305 4.1 19:29:57 10° WNW 19:33:53 36° SW 19:34:21 34° SSW
Cosmos 2227 4.1 19:33:08 10° NNW 19:38:36 69° NE 19:38:36 69° NE
SeaSat 1 2.4 19:40:26 75° N 19:40:26 75° N 19:45:03 10° NNW
USA 306 4.3 19:36:31 10° WNW 19:40:21 32° SW 19:40:35 32° SW
Cosmos 2360 4.5 19:38:09 10° SW 19:43:51 67° WNW 19:46:40 31° NNE
H-2A R/B 2.7 19:38:51 10° S 19:44:10 56° W 19:49:34 10° NNW
MOS 1 Rocket 3.8 19:42:25 10° N 19:47:04 59° WNW 19:51:58 10° SSW
NOSS 3-4 (A) 3.8 19:44:21 10° NW 19:51:20 84° SW 19:53:07 56° SSE
NOSS 3-4 (C) 3.8 19:44:27 10° NW 19:51:26 85° SW 19:53:11 57° SSE
Cosmos 2278 3.8 19:48:16 10° SSW 19:53:57 75° WNW 19:54:45 64° N
USA 215 3.3 19:57:31 59° NE 19:57:53 60° NNE 20:04:18 10° NW
GEOS 3 Rocket 4.0 19:58:28 60° SW 19:58:44 61° SW 20:04:06 10° NW
Cosmos 44 Rocket 4.0 19:54:48 10° SW 19:58:44 52° W 19:58:44 52° W
ATLAS 5 CENTAUR R/B 4.0 19:56:28 10° NNW 19:59:05 17° N 19:59:05 17° N
Lacrosse 5 2.9 19:55:49 10° NW 19:59:23 39° NNW 19:59:23 39° NNW
ARGOS 3.8 19:58:53 35° SSW 20:00:55 54° W 20:06:15 10° NNW
Meteor 2-3 Rocket 3.8 19:56:42 10° NNW 20:01:56 73° NW 20:01:56 73° NW
COSMOS 2455 4.5 19:59:29 10° NNW 20:02:51 22° NNE 20:02:51 22° NNE
ATLAS 2AS CENTAUR R/B 2.7 20:05:54 10° NW 20:13:26 79° SW 20:13:44 78° SSW
SJ 16-02 4.0 20:10:16 10° NNW 20:10:43 13° NNW 20:10:43 13° NNW
BREEZE-M R/B 4.5 20:10:49 10° WNW 20:15:46 60° SSW 20:15:51 60° SSW
Cosmos 1844 Rocket 4.4 20:10:58 10° NNW 20:13:19 22° N 20:13:19 22° N
Cosmos 2263 Rocket 3.1 20:22:27 10° NW 20:26:50 47° WNW 20:26:50 47° WNW
CZ-4C R/B 3.1 20:28:55 10° NW 20:34:50 66° NNW 20:34:50 66° NNW
Cosmos 1980 Rocket 4.2 20:59:51 10° WSW 21:03:04 24° WNW 21:03:04 24° WNW
